Location: D�nning
(49.2479°N, 12.8491°E)
Time: 03:14:17
(UTC+00:00)

Landsat 7 - Pass Details

Date: 18 September 2020
Orbit: 701 x 703 km, 98.1° (Epoch: 24 October)

Event Time Altitude Azimuth Distance (km) Brightness Sun altitude
Exits shadow 19:25:44 38° 70° (ENE) 1,067 4.4 -21.3°
Maximum altitude 19:25:50 38° 67° (ENE) 1,067 4.4 -21.3°
Drops below altitude 10° 19:30:15 10° 360° (N) 2,183 6.7 -21.9°
Sets 19:32:38 0° 353° (N) 3,106 7.7 -22.2°
